カタログに戻る

FENGYUN 1C DEB

運用中SSO
NORAD 29967·DEBRIS·🇨🇳 China

打ち上げ May 10, 1999 から Taiyuan Satellite Launch Center

Loading…

次のパス (今後24時間)

TLE

経年Source: Space-Track

元期: Sep 11, 2026, 04:26 UTC

1 29967U 99025KR  26254.18537325  .00002031  00000-0  85842-3 0  9997
2 29967  98.8545 338.0815 0074779 225.1025 164.5921 14.25184656 10699

AllMySatでFENGYUN 1C DEBをリアルタイム追跡

Download on the App Store